FW2439 Weather Reports


time (UTC)temp
F
wind
direction
speed
knots
gust
knots
rain 1hr
in
rain 24hr
in
rain mn
in
humidity
%
barometer
mb
20260904193015 96 302 0.9 4.3 0.00 0.00 0.00 52 1014.5
20260904191517 98 281 0.0 5.2 0.00 0.00 0.00 50 1014.7
20260904190012 99 245 0.0 2.6 0.00 0.00 0.00 52 1014.7
20260904184510 97 269 1.7 3.5 0.00 0.00 0.00 51 1014.9
20260904183008 96 324 0.0 2.6 0.00 0.00 0.00 54 1015.1
20260904181507 97 275 0.0 1.7 0.00 0.00 0.00 56 1015.2
20260904180005 97 184 1.7 4.3 0.00 0.00 0.00 55 1015.3
20260904174506 96 245 1.7 3.5 0.00 0.00 0.00 54 1015.5
20260904173002 96 234 0.0 3.5 0.00 0.00 0.00 55 1015.6
20260904171621 96 217 0.9 1.7 0.00 0.00 0.00 57 1015.8
20260904170058 95 317 0.9 2.6 0.00 0.00 0.00 56 1016.1
20260904164558 96 217 0.0 2.6 0.00 0.00 0.00 57 1016.2
20260904163058 95 226 0.0 2.6 0.00 0.00 0.00 59 1016.4
20260904161600 95 231 0.9 4.3 0.00 0.00 0.00 57 1016.4
20260904160058 96 214 0.0 1.7 0.00 0.00 0.00 59 1016.5
20260904154551 95 242 0.0 0.9 0.00 0.00 0.00 62 1016.6
20260904153106 94 250 0.0 1.7 0.00 0.00 0.00 64 1016.7
20260904151543 93 230 0.0 0.9 0.00 0.00 0.00 65 1016.6
20260904150038 92 227 0.0 1.7 0.00 0.00 0.00 66 1016.5
20260904144534 91 233 0.0 1.7 0.00 0.00 0.00 69 1016.4
20260904143035 88 224 0.0 0.9 0.00 0.00 0.00 77 1016.3
20260904141526 84 226 0.0 1.7 0.00 0.00 0.00 81 1016.3
20260904140021 81 222 0.0 0.0 0.00 0.00 0.00 89 1016.2
20260904134522 79 222 0.0 0.0 0.00 0.00 0.00 94 1016.2
20260904133016 77 222 0.0 0.0 0.00 0.00 0.00 96 1016.4
20260904131512 76 222 0.0 0.0 0.00 0.00 0.00 98 1016.2
20260904130010 74 222 0.0 0.0 0.00 0.00 0.00 99 1016.1
20260904124510 74 222 0.0 0.0 0.00 0.00 0.00 99 1016.0
20260904123009 73 222 0.0 0.0 0.00 0.00 0.00 99 1015.8
20260904121508 73 222 0.0 0.0 0.00 0.00 0.00 99 1015.7
20260904120007 72 222 0.0 0.0 0.00 0.00 0.00 99 1015.6
20260904114504 72 222 0.0 0.0 0.00 0.00 0.00 99 1015.3
20260904113002 72 222 0.0 0.0 0.00 0.00 0.00 99 1015.1
20260904111502 72 222 0.0 0.0 0.00 0.00 0.00 99 1015.0
20260904110100 72 222 0.0 0.0 0.00 0.00 0.00 99 1015.0
20260904104559 72 222 0.0 0.0 0.00 0.00 0.00 98 1014.9
20260904103059 72 222 0.0 0.0 0.00 0.00 0.00 98 1014.8
20260904101558 72 222 0.0 0.0 0.00 0.00 0.00 98 1014.8
20260904100056 73 222 0.0 0.0 0.00 0.00 0.00 98 1014.8
20260904094557 73 222 0.0 0.0 0.00 0.00 0.00 98 1014.8
20260904093055 73 222 0.0 0.0 0.00 0.00 0.00 98 1014.6
20260904091554 73 222 0.0 0.0 0.00 0.00 0.00 98 1014.5
20260904090053 73 222 0.0 0.0 0.00 0.00 0.00 98 1014.5
20260904084559 73 222 0.0 0.0 0.00 0.00 0.00 98 1014.5
20260904083053 74 222 0.0 0.0 0.00 0.00 0.00 98 1014.4
20260904081551 74 222 0.0 0.0 0.00 0.00 0.00 97 1014.3
20260904080110 74 222 0.0 0.0 0.00 0.00 0.00 97 1014.3
20260904074548 74 222 0.0 0.0 0.00 0.00 0.00 97 1014.3
20260904073046 74 222 0.0 0.0 0.00 0.00 0.00 96 1014.4
20260904071545 75 222 0.0 0.0 0.00 0.00 0.00 96 1014.3
20260904070050 75 222 0.0 0.0 0.00 0.00 0.00 96 1014.2
20260904064542 75 222 0.0 0.0 0.00 0.00 0.00 96 1014.3
20260904063103 75 222 0.0 0.0 0.00 0.00 0.00 95 1014.5
20260904061538 75 222 0.0 0.0 0.00 0.00 0.00 94 1014.4
20260904060042 75 222 0.0 0.0 0.00 0.00 0.00 94 1014.4
20260904054540 75 222 0.0 0.0 0.00 0.00 0.00 94 1014.5
20260904053043 76 222 0.0 0.0 0.00 0.00 0.00 93 1014.5
20260904051530 76 222 0.0 0.0 0.00 0.00 0.00 92 1014.5
20260904050027 76 222 0.0 0.0 0.00 0.00 0.00 92 1014.6
20260904044534 76 222 0.0 0.0 0.00 0.00 0.00 91 1014.5
20260904043037 77 222 0.0 0.0 0.00 0.00 0.00 91 1014.7
20260904041525 77 222 0.0 0.0 0.00 0.00 0.00 91 1014.8
20260904040025 77 222 0.0 0.0 0.00 0.00 0.00 91 1014.9
20260904034526 77 222 0.0 0.0 0.00 0.00 0.00 90 1014.8
20260904033030 78 222 0.0 0.0 0.00 0.00 0.00 90 1014.9
20260904031524 78 222 0.0 0.0 0.00 0.00 0.00 89 1014.8
20260904030033 78 222 0.0 0.0 0.00 0.00 0.00 89 1015.0
20260904024524 79 222 0.0 0.0 0.00 0.00 0.00 89 1014.9
20260904023022 79 222 0.0 0.0 0.00 0.00 0.00 89 1014.8
20260904021528 80 222 0.0 0.0 0.00 0.00 0.00 88 1014.5
20260904020022 80 222 0.0 0.0 0.00 0.00 0.00 86 1014.5
20260904014521 81 222 0.0 0.0 0.00 0.00 0.00 85 1014.4
20260904013020 82 222 0.0 0.0 0.00 0.00 0.00 84 1014.3
20260904011520 83 222 0.0 0.0 0.00 0.00 0.00 82 1014.1
20260904010021 83 222 0.0 0.0 0.00 0.00 0.00 80 1013.9
20260904004525 85 222 0.0 0.0 0.00 0.00 0.00 78 1013.7
20260904003022 86 222 0.0 0.0 0.00 0.00 0.00 74 1013.6
20260904001519 88 222 0.0 0.0 0.00 0.00 0.00 73 1013.5
20260904000018 89 222 0.0 0.0 0.00 0.00 0.00 70 1013.6
20260903234518 91 222 0.0 0.0 0.00 0.00 0.00 66 1013.5
20260903233029 92 222 0.0 0.0 0.00 0.00 0.00 63 1013.4
20260903231527 94 222 0.0 0.0 0.00 0.00 0.00 61 1013.3
20260903230015 96 222 0.0 0.9 0.00 0.00 0.00 57 1013.2
20260903224514 98 257 0.0 0.9 0.00 0.00 0.00 54 1013.0
20260903223013 99 283 0.0 1.7 0.00 0.00 0.00 50 1013.1
20260903221513 99 228 0.0 1.7 0.00 0.00 0.00 52 1013.1
20260903220012 100 264 0.9 2.6 0.00 0.00 0.00 49 1013.0
20260903214510 100 346 0.9 3.5 0.00 0.00 0.00 47 1013.0
20260903213008 99 243 0.9 3.5 0.00 0.00 0.00 48 1013.1
20260903211507 100 259 0.0 2.6 0.00 0.00 0.00 51 1013.2
20260903210005 99 356 0.9 3.5 0.00 0.00 0.00 48 1013.4
20260903204501 100 222 2.6 5.2 0.00 0.00 0.00 48 1013.7
20260903203058 99 311 0.9 3.5 0.00 0.00 0.00 48 1013.8
20260903201556 100 23 0.9 3.5 0.00 0.00 0.00 48 1014.0
20260903200111 100 231 0.9 3.5 0.00 0.00 0.00 54 1014.3
20260903194551 98 233 0.9 5.2 0.00 0.00 0.00 52 1014.3